Regional Weather Roundup
Issued by NWS San Angelo, TX

Home | Current Version | Previous Version | Text Only | Print | Product List | Glossary On
Versions: 1 2 3 4 5 6 7 8 9 10 11 12 13 14 15 16 17 18 19 20 21 22 23 24 25 26 27 28 29 30 31 32 33 34 35 36 37 38 39 40 41 42 43 44 45 46 47 48 49 50
000
ASUS44 KSJT 271310
RWRSJT
WEST CENTRAL TEXAS REGIONAL WEATHER ROUNDUP
NATIONAL WEATHER SERVICE SAN ANGELO TX
800 AM CDT SUN MAY 27 2018

NOTE: "FAIR" INDICATES FEW OR NO CLOUDS BELOW 12,000 FEET WITH NO
SIGNIFICANT WEATHER AND/OR OBSTRUCTIONS TO VISIBILITY.

TXZ049-054-064>066-071>073-076>078-098-099-113-114-127-128-139-140-
154-155-168>170-271400
...LOCATIONS ACROSS WEST CENTRAL TEXAS...

CITY           SKY/WX    TMP DP  RH WIND       PRES   REMARKS
SAN ANGELO     SUNNY     75  66  73 S8        29.82R
ABILENE        SUNNY     74  66  76 SE13      29.83R
DYESS AFB      SUNNY     76  61  58 S15       29.82R
JUNCTION       SUNNY     76  63  64 E5        29.85R
SWEETWATER     SUNNY     77  61  57 S12       29.86R
BROWNWOOD      SUNNY     75  68  78 CALM      29.85R
COLEMAN        SUNNY     76  64  66 SE5       29.86R
SONORA         SUNNY     75  66  73 S10       29.89S
OZONA          FAIR      75  63  64 S15       29.87S
BRADY          SUNNY     75  61  60 S8        29.86R
$$

TEXAS PANHANDLE/OKLAHOMA PANHANDLE

CITY           SKY/WX    TMP DP  RH WIND       PRES   REMARKS
AMARILLO       CLOUDY    67  63  87 SE15      29.89F
BORGER         SUNNY     73  63  70 SE13      29.86F
CANADIAN       MOSUNNY   70  67  90 E3        29.88R
DALHART        MOSUNNY   68  63  84 SE10      29.90R
DUMAS          SUNNY     68  61  78 SE10      29.88S
GUYMON         NOT AVBL
HEREFORD       CLOUDY    67  63  85 SE9       29.90R
PAMPA          MOSUNNY   71  64  80 SE10      29.91R
PERRYTON       PTSUNNY   71  66  84 SE10      29.88S
$$

SOUTHERN PANHANDLE/SOUTH PLAINS/ROLLING PLAINS

CITY           SKY/WX    TMP DP  RH WIND       PRES   REMARKS
LUBBOCK        PTSUNNY   74  59  59 SE13      29.87S
SNYDER         SUNNY     74  60  61 S9        29.84S
CHILDRESS      SUNNY     72  68  87 SE8       29.85R
SEMINOLE       MOSUNNY   72  52  50 SE5       29.87S
$$

PERMIAN BASIN

CITY           SKY/WX    TMP DP  RH WIND       PRES   REMARKS
MIDLAND        CLOUDY    78  56  46 SE9       29.84R
ODESSA           N/A    N/A N/A N/A MISG      29.84R
WINK           SUNNY     78  54  43 MISG      29.80R
$$

FAR WEST/SOUTHWEST MOUNTAINS/TRANS PECOS

CITY           SKY/WX    TMP DP  RH WIND       PRES   REMARKS
ALPINE         SUNNY     76  43  30 CALM      30.00R
DRYDEN           N/A     76  59  55 NE8       29.82R
EL PASO        MOSUNNY   78  22  12 NW8       29.89R
FORT STOCKTON  CLOUDY    90  39  16 SE8       29.84R
GUADALUPE PASS SUNNY     70  26  19 SW10      30.00R
MARFA          SUNNY     66  41  40 MISG      29.99R
PECOS          CLOUDY    83  45  26 SE9       29.80S
$$

DALLAS/FORT WORTH METROPLEX

CITY           SKY/WX    TMP DP  RH WIND       PRES   REMARKS
DFW AIRPORT    MOSUNNY   79  73  82 E7        29.82R
FTW MEACHAM    MOSUNNY   81  72  74 SE8       29.83R
DAL-EXECUTIVE  SUNNY     78  72  81 E5        29.83R
GRAND PRAIRIE  SUNNY     81  70  69 E5        29.85R
ADDISON        SUNNY     79  72  78 E7        29.84
MESQUITE       SUNNY     75  72  88 CALM      29.84R
LANCASTER      SUNNY     75  72  91 CALM      29.84S
$$

NORTH CENTRAL TEXAS

CITY           SKY/WX    TMP DP  RH WIND       PRES   REMARKS
SHRMAN/DENISON SUNNY     74  69  85 E10       29.87R
GAINESVILLE    SUNNY     75  69  80 E6        29.87S
BRIDGEPORT     MOSUNNY   76  69  78 SE3       29.86R
DENTON         SUNNY     80  71  74 E6        29.83R
WAXAHACHIE     SUNNY     76  74  93 CALM      29.85R
GRANBURY       MOSUNNY   79  70  74 E5        29.85R
$$

WESTERN NORTH TEXAS

CITY           SKY/WX    TMP DP  RH WIND       PRES   REMARKS
WICHITA FALLS  SUNNY     75  68  78 SE12      29.82R
VERNON         SUNNY     73  67  80 E6        29.83R
BRECKENRIDGE   SUNNY     79  67  65 S7        29.82S
COMANCHE       SUNNY     72  72  99 E3        29.85R
$$

CENTRAL AND SOUTH CENTRAL TEXAS

CITY           SKY/WX    TMP DP  RH WIND       PRES   REMARKS
AUSTIN/BERGSTM MOSUNNY   75  71  87 SE5       29.83R
WACO           MOSUNNY   78  70  76 S8        29.83R
HILLSBORO      MOSUNNY   78  73  86 SE7       29.84R
TEMPLE         SUNNY     76  71  85 S9        29.84R
KILLEEN-GRAY   MOSUNNY   76  66  71 SE7       29.83R
FORT HOOD      SUNNY     75  68  79 SE7       29.81R
GEORGETOWN     CLOUDY    75  70  83 S7        29.86R
LAGO VISTA     FAIR      77  67  71 SE3       29.86R
SAN MARCOS     SUNNY     75  72  90 SE5       29.84R
NEW BRAUNFELS  MOSUNNY   74  71  91 S3        29.82S
RANDOLPH AFB   CLOUDY    75  73  94 S5        29.84
SAN ANTONIO    PTSUNNY   76  71  85 SE7       29.84R
STINSON        PTSUNNY   77  74  90 SE5       29.81R
PLEASANTON     NOT AVBL
LA GRANGE      PTSUNNY   77  75  93 CALM      29.81S
GIDDINGS       MOSUNNY   71  70  94 S3        29.85R
$$

EAST TEXAS

CITY           SKY/WX    TMP DP  RH WIND       PRES   REMARKS
PARIS          MOSUNNY   73  72  94 E7        29.88R
CLARKSVILLE    NOT AVBL
TYLER          MOSUNNY   76  67  73 E3        29.85R
LONGVIEW       SUNNY     73  71  93 S3        29.85R
PALESTINE      SUNNY     75  69  82 CALM      29.86R
NACOGDOCHES      N/A     73  68  84 CALM      29.86R
$$

TEXAS HILL COUNTRY AND EDWARDS PLATEAU

CITY           SKY/WX    TMP DP  RH WIND       PRES   REMARKS
LLANO          SUNNY     77  66  69 CALM      29.86R
HORSESHOE BAY  FAIR      76  64  67 MISG      29.84R
KERRVILLE      SUNNY     72  65  80 CALM      29.85S
FREDERICKSBRG  SUNNY     72  63  73 SW5       29.86R
ROCKSPRINGS    SUNNY     73  66  78 S13       29.91R
HONDO          SUNNY     75  71  87 NE3       29.83R
UVALDE         SUNNY     72  67  84 E6        29.82R
DEL RIO        SUNNY     77  69  76 E7        29.78R
$$

SOUTHEAST TEXAS

CITY           SKY/WX    TMP DP  RH WIND       PRES   REMARKS
COLLEGE STN    SUNNY     76  72  87 SW5       29.83R
CALDWELL       PTSUNNY   76  73  89 SW6       29.84S
CROCKETT       LGT RAIN  72  68  88 CALM      29.88R
BRENHAM        CLOUDY    74  72  91 CALM      29.84R
HUNTSVILLE     PTSUNNY   75  68  78 VRB3      29.84R
CONROE         PTSUNNY   72  71  97 CALM      29.85R
HOUSTON BUSH   FAIR      73  72  96 VRB3      29.83R
HOUSTON HOBBY  FAIR      75  73  93 CALM      29.82R
PERLAND        FAIR      75  73  93 CALM      29.83R
WHARTON        SUNNY     73  71  96 CALM      29.83R
$$

THE UPPER TEXAS COAST

CITY           SKY/WX    TMP DP  RH WIND       PRES   REMARKS
ORANGE         PTSUNNY   74  74 100 CALM      29.85R FOG
PORT ARTHUR    FAIR      78  74  87 CALM      29.82R
GALVESTON      FAIR      80  77  90 CALM      29.82R
ANGLETON       FAIR      77  73  87 CALM      29.81S
BAY CITY       FAIR      74  74  99 CALM      29.81S
$$

TEXAS COASTAL BEND, RIO GRANDE PLAINS DEEP SOUTH TEXAS

CITY           SKY/WX    TMP DP  RH WIND       PRES   REMARKS
VICTORIA       PTSUNNY   77  74  90 CALM      29.82R
BEEVILLE       PTSUNNY   75  74  98 SE6       29.80S
ROCKPORT       SUNNY     80  73  79 S5        29.79R
PORT ARANSAS     N/A    N/A N/A N/A MISG        N/A
PORT LAVACA    SUNNY     75  73  94 CALM      29.81R
CORPUS CHRISTI MOSUNNY   76  76 100 CALM      29.80R
KINGSVILLE NAS MOSUNNY   77  74  90 S5        29.79R
COTULLA        SUNNY     76  71  85 E7        29.79R
LAREDO         SUNNY     78  71  79 S10       29.77R
BROWNSVILLE    FAIR      79  76  90 S7        29.79S
PORT ISABEL    FAIR      81  73  76 S8        29.78R
HEBBRONVILLE   MOSUNNY   73  71  92 CALM      29.80R
MCALLEN        SUNNY     78  76  93 SE7       29.79R
WESLACO        NOT AVBL
FALFURRIAS     MOSUNNY   75  72  90 S6        29.78S
EDINBURG       MOSUNNY   77  75  91 S6        29.79R
$$




USA.gov is the U.S. government's official web portal to all federal, state and local government web resources and services.